Simultaneous Nadir Overpasses (SNOs) Predictions

Prediction of SNOs between GOES-16 and LANDSAT-8 Satellite Orbit:

Table of predicted SNOs for the next 14.0 days since TLE Epoch: 4/11/2025
Index Date Time (GOES-16) GOES-16 Lat,Lon LANDSAT-8 Lat,Lon Distance(km) Time Diff (sec)
1 04/12/2025 02:57:00 -0.07, -75.50 0.72, -71.72 429.61 80
2 04/12/2025 15:18:16 0.07, -75.52 0.34, -76.89 154.51 80
3 04/14/2025 15:08:43 0.07, -75.54 -0.25, -73.92 183.80 80
4 04/15/2025 03:30:06 -0.07, -75.53 -0.84, -79.12 407.54 80
5 04/17/2025 03:17:54 -0.07, -75.55 -0.22, -76.16 68.98 80
6 04/19/2025 03:03:01 -0.06, -75.58 0.44, -73.20 270.04 80
7 04/19/2025 15:24:15 0.06, -75.60 0.66, -78.36 314.17 80
8 04/21/2025 15:14:41 0.05, -75.63 0.03, -75.39 25.87 80
9 04/23/2025 15:02:28 0.05, -75.66 -0.62, -72.43 366.46 80
10 04/24/2025 03:23:50 -0.05, -75.66 -0.49, -77.62 223.75 80
